Year,Month,Day,Hour,Minute,Value (Times are PST for temperature in C)
2015,02,16,00,00,2.30
2015,02,16,00,01,2.30
2015,02,16,00,02,2.30
2015,02,16,00,03,2.40
2015,02,16,00,04,2.40
2015,02,16,00,05,2.40
2015,02,16,00,06,2.40
2015,02,16,00,07,2.40
2015,02,16,00,08,2.40
2015,02,16,00,09,2.40
2015,02,16,00,10,2.40
2015,02,16,00,11,2.50
2015,02,16,00,12,2.50
2015,02,16,00,13,2.50
2015,02,16,00,14,2.50
2015,02,16,00,15,2.50
2015,02,16,00,16,2.50
2015,02,16,00,17,2.50
2015,02,16,00,18,2.50
2015,02,16,00,19,2.50
2015,02,16,00,20,2.50
2015,02,16,00,21,2.50
2015,02,16,00,22,2.50
2015,02,16,00,23,2.50
2015,02,16,00,24,2.50
2015,02,16,00,25,2.50
2015,02,16,00,26,2.50
2015,02,16,00,27,2.50
2015,02,16,00,28,2.40
2015,02,16,00,29,2.50
2015,02,16,00,30,2.40
2015,02,16,00,31,2.40
2015,02,16,00,32,2.40
2015,02,16,00,33,2.40
2015,02,16,00,34,2.40
2015,02,16,00,35,2.40
2015,02,16,00,36,2.40
2015,02,16,00,37,2.40
2015,02,16,00,38,2.40
2015,02,16,00,39,2.40
2015,02,16,00,40,2.40
2015,02,16,00,41,2.30
2015,02,16,00,42,2.30
2015,02,16,00,43,2.30
2015,02,16,00,44,2.30
2015,02,16,00,45,2.30
2015,02,16,00,46,2.30
2015,02,16,00,47,2.30
2015,02,16,00,48,2.30
2015,02,16,00,49,2.20
2015,02,16,00,50,2.20
2015,02,16,00,51,2.20
2015,02,16,00,52,2.20
2015,02,16,00,53,2.20
2015,02,16,00,54,2.20
2015,02,16,00,55,2.20
2015,02,16,00,56,2.10
2015,02,16,00,57,2.10
2015,02,16,00,58,2.10
2015,02,16,00,59,2.10
2015,02,16,01,00,2.10
2015,02,16,01,01,2.10
2015,02,16,01,02,2.10
2015,02,16,01,03,2.10
2015,02,16,01,04,2.10
2015,02,16,01,05,2.10
2015,02,16,01,06,2.10
2015,02,16,01,07,2.00
2015,02,16,01,08,2.00
2015,02,16,01,09,2.00
2015,02,16,01,10,2.00
2015,02,16,01,11,2.00
2015,02,16,01,12,1.90
2015,02,16,01,13,1.90
2015,02,16,01,14,1.90
2015,02,16,01,15,1.90
2015,02,16,01,16,1.80
2015,02,16,01,17,1.80
2015,02,16,01,18,1.80
2015,02,16,01,19,1.80
2015,02,16,01,20,1.80
2015,02,16,01,21,1.80
2015,02,16,01,22,1.80
2015,02,16,01,23,1.90
2015,02,16,01,24,1.90
2015,02,16,01,25,1.90
2015,02,16,01,26,1.90
2015,02,16,01,27,1.90
2015,02,16,01,28,1.90
2015,02,16,01,29,1.80
2015,02,16,01,30,1.80
2015,02,16,01,31,1.80
2015,02,16,01,32,1.80
2015,02,16,01,33,1.80
2015,02,16,01,34,1.80
2015,02,16,01,35,1.80
2015,02,16,01,36,1.80
2015,02,16,01,37,1.80
2015,02,16,01,38,1.80
2015,02,16,01,39,1.70
2015,02,16,01,40,1.70
2015,02,16,01,41,1.70
2015,02,16,01,42,1.70
2015,02,16,01,43,1.60
2015,02,16,01,44,1.60
2015,02,16,01,45,1.60
2015,02,16,01,46,1.70
2015,02,16,01,47,1.70
2015,02,16,01,48,1.70
2015,02,16,01,49,1.70
2015,02,16,01,50,1.70
2015,02,16,01,51,1.70
2015,02,16,01,52,1.70
2015,02,16,01,53,1.70
2015,02,16,01,54,1.70
2015,02,16,01,55,1.70
2015,02,16,01,56,1.70
2015,02,16,01,57,1.70
2015,02,16,01,58,1.70
2015,02,16,01,59,1.70
2015,02,16,02,00,1.70
2015,02,16,02,01,1.70
2015,02,16,02,02,1.70
2015,02,16,02,03,1.70
2015,02,16,02,04,1.70
2015,02,16,02,05,1.80
2015,02,16,02,06,1.80
2015,02,16,02,07,1.80
2015,02,16,02,08,1.80
2015,02,16,02,09,1.80
2015,02,16,02,10,1.80
2015,02,16,02,11,1.80
2015,02,16,02,12,1.80
2015,02,16,02,13,1.80
2015,02,16,02,14,1.80
2015,02,16,02,15,1.80
2015,02,16,02,16,1.80
2015,02,16,02,17,1.80
2015,02,16,02,18,1.80
2015,02,16,02,19,1.80
2015,02,16,02,20,1.80
2015,02,16,02,21,1.80
2015,02,16,02,22,1.80
2015,02,16,02,23,1.80
2015,02,16,02,24,1.80
2015,02,16,02,25,1.80
2015,02,16,02,26,1.80
2015,02,16,02,27,1.80
2015,02,16,02,28,1.80
2015,02,16,02,29,1.80
2015,02,16,02,30,1.80
2015,02,16,02,31,1.80
2015,02,16,02,32,1.80
2015,02,16,02,33,1.80
2015,02,16,02,34,1.80
2015,02,16,02,35,1.80
2015,02,16,02,36,1.80
2015,02,16,02,37,1.80
2015,02,16,02,38,1.80
2015,02,16,02,39,1.80
2015,02,16,02,40,1.80
2015,02,16,02,41,1.80
2015,02,16,02,42,1.70
2015,02,16,02,43,1.70
2015,02,16,02,44,1.70
2015,02,16,02,45,1.70
2015,02,16,02,46,1.70
2015,02,16,02,47,1.70
2015,02,16,02,48,1.70
2015,02,16,02,49,1.70
2015,02,16,02,50,1.80
2015,02,16,02,51,1.80
2015,02,16,02,52,1.80
2015,02,16,02,53,1.80
2015,02,16,02,54,1.80
2015,02,16,02,55,1.80
2015,02,16,02,56,1.80
2015,02,16,02,57,1.80
2015,02,16,02,58,1.80
2015,02,16,02,59,1.80
2015,02,16,03,00,1.80
2015,02,16,03,01,1.80
2015,02,16,03,02,1.80
2015,02,16,03,03,1.80
2015,02,16,03,04,1.70
2015,02,16,03,05,1.70
2015,02,16,03,06,1.70
2015,02,16,03,07,1.70
2015,02,16,03,08,1.70
2015,02,16,03,09,1.70
2015,02,16,03,10,1.70
2015,02,16,03,11,1.70
2015,02,16,03,12,1.70
2015,02,16,03,13,1.70
2015,02,16,03,14,1.70
2015,02,16,03,15,1.70
2015,02,16,03,16,1.70
2015,02,16,03,17,1.70
2015,02,16,03,18,1.60
2015,02,16,03,19,1.60
2015,02,16,03,20,1.60
2015,02,16,03,21,1.60
2015,02,16,03,22,1.60
2015,02,16,03,23,1.50
2015,02,16,03,24,1.50
2015,02,16,03,25,1.50
2015,02,16,03,26,1.50
2015,02,16,03,27,1.50
2015,02,16,03,28,1.50
2015,02,16,03,29,1.50
2015,02,16,03,30,1.50
2015,02,16,03,31,1.50
2015,02,16,03,32,1.50
2015,02,16,03,33,1.50
2015,02,16,03,34,1.50
2015,02,16,03,35,1.50
2015,02,16,03,36,1.40
2015,02,16,03,37,1.40
2015,02,16,03,38,1.40
2015,02,16,03,39,1.40
2015,02,16,03,40,1.40
2015,02,16,03,41,1.40
2015,02,16,03,42,1.40
2015,02,16,03,43,1.40
2015,02,16,03,44,1.40
2015,02,16,03,45,1.30
2015,02,16,03,46,1.30
2015,02,16,03,47,1.30
2015,02,16,03,48,1.40
2015,02,16,03,49,1.40
2015,02,16,03,50,1.30
2015,02,16,03,51,1.30
2015,02,16,03,52,1.40
2015,02,16,03,53,1.40
2015,02,16,03,54,1.40
2015,02,16,03,55,1.40
2015,02,16,03,56,1.30
2015,02,16,03,57,1.30
2015,02,16,03,58,1.30
2015,02,16,03,59,1.30
2015,02,16,04,00,1.30
2015,02,16,04,01,1.30
2015,02,16,04,02,1.30
2015,02,16,04,03,1.30
2015,02,16,04,04,1.30
2015,02,16,04,05,1.30
2015,02,16,04,06,1.30
2015,02,16,04,07,1.30
2015,02,16,04,08,1.30
2015,02,16,04,09,1.30
2015,02,16,04,10,1.30
2015,02,16,04,11,1.30
2015,02,16,04,12,1.30
2015,02,16,04,13,1.30
2015,02,16,04,14,1.30
2015,02,16,04,15,1.30
2015,02,16,04,16,1.30
2015,02,16,04,17,1.30
2015,02,16,04,18,1.30
2015,02,16,04,19,1.30
2015,02,16,04,20,1.30
2015,02,16,04,21,1.30
2015,02,16,04,22,1.30
2015,02,16,04,23,1.30
2015,02,16,04,24,1.30
2015,02,16,04,25,1.30
2015,02,16,04,26,1.30
2015,02,16,04,27,1.30
2015,02,16,04,28,1.30
2015,02,16,04,29,1.30
2015,02,16,04,30,1.30
2015,02,16,04,31,1.30
2015,02,16,04,32,1.30
2015,02,16,04,33,1.30
2015,02,16,04,34,1.30
2015,02,16,04,35,1.30
2015,02,16,04,36,1.30
2015,02,16,04,37,1.30
2015,02,16,04,38,1.30
2015,02,16,04,39,1.30
2015,02,16,04,40,1.30
2015,02,16,04,41,1.30
2015,02,16,04,42,1.30
2015,02,16,04,43,1.20
2015,02,16,04,44,1.20
2015,02,16,04,45,1.20
2015,02,16,04,46,1.20
2015,02,16,04,47,1.20
2015,02,16,04,48,1.10
2015,02,16,04,49,1.10
2015,02,16,04,50,1.10
2015,02,16,04,51,1.10
2015,02,16,04,52,1.10
2015,02,16,04,53,1.10
2015,02,16,04,54,1.10
2015,02,16,04,55,1.20
2015,02,16,04,56,1.20
2015,02,16,04,57,1.20
2015,02,16,04,58,1.20
2015,02,16,04,59,1.20
2015,02,16,05,00,1.20
2015,02,16,05,01,1.20
2015,02,16,05,02,1.20
2015,02,16,05,03,1.20
2015,02,16,05,04,1.20
2015,02,16,05,05,1.20
2015,02,16,05,06,1.30
2015,02,16,05,07,1.20
2015,02,16,05,08,1.20
2015,02,16,05,09,1.20
2015,02,16,05,10,1.20
2015,02,16,05,11,1.10
2015,02,16,05,12,1.10
2015,02,16,05,13,1.10
2015,02,16,05,14,1.10
2015,02,16,05,15,1.10
2015,02,16,05,16,1.20
2015,02,16,05,17,1.20
2015,02,16,05,18,1.20
2015,02,16,05,19,1.10
2015,02,16,05,20,1.10
2015,02,16,05,21,1.10
2015,02,16,05,22,1.10
2015,02,16,05,23,1.10
2015,02,16,05,24,1.10
2015,02,16,05,25,1.10
2015,02,16,05,26,1.10
2015,02,16,05,27,1.10
2015,02,16,05,28,1.10
2015,02,16,05,29,1.10
2015,02,16,05,30,1.10
2015,02,16,05,31,1.10
2015,02,16,05,32,1.00
2015,02,16,05,33,1.00
2015,02,16,05,34,1.00
2015,02,16,05,35,0.90
2015,02,16,05,36,0.90
2015,02,16,05,37,0.90
2015,02,16,05,38,0.90
2015,02,16,05,39,0.90
2015,02,16,05,40,0.90
2015,02,16,05,41,0.90
2015,02,16,05,42,0.90
2015,02,16,05,43,1.00
2015,02,16,05,44,1.00
2015,02,16,05,45,1.00
2015,02,16,05,46,1.00
2015,02,16,05,47,1.00
2015,02,16,05,48,1.10
2015,02,16,05,49,1.10
2015,02,16,05,50,1.10
2015,02,16,05,51,1.10
2015,02,16,05,52,1.10
2015,02,16,05,53,1.10
2015,02,16,05,54,1.10
2015,02,16,05,55,1.10
2015,02,16,05,56,1.10
2015,02,16,05,57,1.10
2015,02,16,05,58,1.20
2015,02,16,05,59,1.20
2015,02,16,06,00,1.20
2015,02,16,06,01,1.20
2015,02,16,06,02,1.20
2015,02,16,06,03,1.20
2015,02,16,06,04,1.20
2015,02,16,06,05,1.20
2015,02,16,06,06,1.20
2015,02,16,06,07,1.20
2015,02,16,06,08,1.20
2015,02,16,06,09,1.20
2015,02,16,06,10,1.20
2015,02,16,06,11,1.20
2015,02,16,06,12,1.20
2015,02,16,06,13,1.20
2015,02,16,06,14,1.20
2015,02,16,06,15,1.20
2015,02,16,06,16,1.20
2015,02,16,06,17,1.20
2015,02,16,06,18,1.20
2015,02,16,06,19,1.20
2015,02,16,06,20,1.20
2015,02,16,06,21,1.20
2015,02,16,06,22,1.20
2015,02,16,06,23,1.20
2015,02,16,06,24,1.20
2015,02,16,06,25,1.20
2015,02,16,06,26,1.20
2015,02,16,06,27,1.20
2015,02,16,06,28,1.20
2015,02,16,06,29,1.20
2015,02,16,06,30,1.20
2015,02,16,06,31,1.20
2015,02,16,06,32,1.20
2015,02,16,06,33,1.20
2015,02,16,06,34,1.20
2015,02,16,06,35,1.20
2015,02,16,06,36,1.20
2015,02,16,06,37,1.30
2015,02,16,06,38,1.20
2015,02,16,06,39,1.20
2015,02,16,06,40,1.20
2015,02,16,06,41,1.20
2015,02,16,06,42,1.20
2015,02,16,06,43,1.20
2015,02,16,06,44,1.20
2015,02,16,06,45,1.20
2015,02,16,06,46,1.10
2015,02,16,06,47,1.10
2015,02,16,06,48,1.10
2015,02,16,06,49,1.10
2015,02,16,06,50,1.10
2015,02,16,06,51,1.10
2015,02,16,06,52,1.10
2015,02,16,06,53,1.10
2015,02,16,06,54,1.10
2015,02,16,06,55,1.10
2015,02,16,06,56,1.10
2015,02,16,06,57,1.10
2015,02,16,06,58,1.10
2015,02,16,06,59,1.10
2015,02,16,07,00,1.10
2015,02,16,07,01,1.10
2015,02,16,07,02,1.10
2015,02,16,07,03,1.10
2015,02,16,07,04,1.10
2015,02,16,07,05,1.10
2015,02,16,07,06,1.10
2015,02,16,07,07,1.10
2015,02,16,07,08,1.10
2015,02,16,07,09,1.10
2015,02,16,07,10,1.10
2015,02,16,07,11,1.10
2015,02,16,07,12,1.10
2015,02,16,07,13,1.10
2015,02,16,07,14,1.10
2015,02,16,07,15,1.10
2015,02,16,07,16,1.10
2015,02,16,07,17,1.10
2015,02,16,07,18,1.10
2015,02,16,07,19,1.10
2015,02,16,07,20,1.20
2015,02,16,07,21,1.20
2015,02,16,07,22,1.20
2015,02,16,07,23,1.20
2015,02,16,07,24,1.20
2015,02,16,07,25,1.20
2015,02,16,07,26,1.20
2015,02,16,07,27,1.20
2015,02,16,07,28,1.10
2015,02,16,07,29,1.10
2015,02,16,07,30,1.20
2015,02,16,07,31,1.20
2015,02,16,07,32,1.20
2015,02,16,07,33,1.20
2015,02,16,07,34,1.20
2015,02,16,07,35,1.20
2015,02,16,07,36,1.20
2015,02,16,07,37,1.10
2015,02,16,07,38,1.10
2015,02,16,07,39,1.10
2015,02,16,07,40,1.10
2015,02,16,07,41,1.10
2015,02,16,07,42,1.10
2015,02,16,07,43,1.10
2015,02,16,07,44,1.10
2015,02,16,07,45,1.20
2015,02,16,07,46,1.20
2015,02,16,07,47,1.20
2015,02,16,07,48,1.20
2015,02,16,07,49,1.20
2015,02,16,07,50,1.20
2015,02,16,07,51,1.20
2015,02,16,07,52,1.20
2015,02,16,07,53,1.20
2015,02,16,07,54,1.20
2015,02,16,07,55,1.20
2015,02,16,07,56,1.30
2015,02,16,07,57,1.30
2015,02,16,07,58,1.30
2015,02,16,07,59,1.30
2015,02,16,08,00,1.30
2015,02,16,08,01,1.30
2015,02,16,08,02,1.30
2015,02,16,08,03,1.30
2015,02,16,08,04,1.30
2015,02,16,08,05,1.30
2015,02,16,08,06,1.30
2015,02,16,08,07,1.30
2015,02,16,08,08,1.30
2015,02,16,08,09,1.30
2015,02,16,08,10,1.30
2015,02,16,08,11,1.30
2015,02,16,08,12,1.30
2015,02,16,08,13,1.30
2015,02,16,08,14,1.30
2015,02,16,08,15,1.30
2015,02,16,08,16,1.30
2015,02,16,08,17,1.30
2015,02,16,08,18,1.30
2015,02,16,08,19,1.30
2015,02,16,08,20,1.40
2015,02,16,08,21,1.40
2015,02,16,08,22,1.40
2015,02,16,08,23,1.50
2015,02,16,08,24,1.50
2015,02,16,08,25,1.50
2015,02,16,08,26,1.50
2015,02,16,08,27,1.50
2015,02,16,08,28,1.60
2015,02,16,08,29,1.60
2015,02,16,08,30,1.60
2015,02,16,08,31,1.60
2015,02,16,08,32,1.70
2015,02,16,08,33,1.70
2015,02,16,08,34,1.70
2015,02,16,08,35,1.70
2015,02,16,08,36,1.70
2015,02,16,08,37,1.80
2015,02,16,08,38,1.80
2015,02,16,08,39,1.90
2015,02,16,08,40,1.90
2015,02,16,08,41,1.90
2015,02,16,08,42,2.00
2015,02,16,08,43,2.10
2015,02,16,08,44,2.10
2015,02,16,08,45,2.10
2015,02,16,08,46,2.20
2015,02,16,08,47,2.20
2015,02,16,08,48,2.20
2015,02,16,08,49,2.30
2015,02,16,08,50,2.30
2015,02,16,08,51,2.40
2015,02,16,08,52,2.40
2015,02,16,08,53,2.50
2015,02,16,08,54,2.50
2015,02,16,08,55,2.50
2015,02,16,08,56,2.60
2015,02,16,08,57,2.60
2015,02,16,08,58,2.60
2015,02,16,08,59,2.60
2015,02,16,09,00,2.70
2015,02,16,09,01,2.70
2015,02,16,09,02,2.70
2015,02,16,09,03,2.70
2015,02,16,09,04,2.70
2015,02,16,09,05,2.80
2015,02,16,09,06,2.80
2015,02,16,09,07,2.80
2015,02,16,09,08,2.80
2015,02,16,09,09,2.90
2015,02,16,09,10,2.90
2015,02,16,09,11,2.90
2015,02,16,09,12,2.90
2015,02,16,09,13,3.00
2015,02,16,09,14,3.00
2015,02,16,09,15,3.00
2015,02,16,09,16,3.10
2015,02,16,09,17,3.10
2015,02,16,09,18,3.10
2015,02,16,09,19,3.10
2015,02,16,09,20,3.20
2015,02,16,09,21,3.20
2015,02,16,09,22,3.20
2015,02,16,09,23,3.30
2015,02,16,09,24,3.30
2015,02,16,09,25,3.30
2015,02,16,09,26,3.30
2015,02,16,09,27,3.40
2015,02,16,09,28,3.40
2015,02,16,09,29,3.40
2015,02,16,09,30,3.50
2015,02,16,09,31,3.50
2015,02,16,09,32,3.50
2015,02,16,09,33,3.50
2015,02,16,09,34,3.60
2015,02,16,09,35,3.60
2015,02,16,09,36,3.70
2015,02,16,09,37,3.70
2015,02,16,09,38,3.80
2015,02,16,09,39,3.80
2015,02,16,09,40,3.80
2015,02,16,09,41,3.90
2015,02,16,09,42,4.00
2015,02,16,09,43,4.00
2015,02,16,09,44,4.10
2015,02,16,09,45,4.10
2015,02,16,09,46,4.10
2015,02,16,09,47,4.20
2015,02,16,09,48,4.20
2015,02,16,09,49,4.20
2015,02,16,09,50,4.30
2015,02,16,09,51,4.30
2015,02,16,09,52,4.30
2015,02,16,09,53,4.30
2015,02,16,09,54,4.40
2015,02,16,09,55,4.40
2015,02,16,09,56,4.40
2015,02,16,09,57,4.40
2015,02,16,09,58,4.50
2015,02,16,09,59,4.50
2015,02,16,10,00,4.50
2015,02,16,10,01,4.60
2015,02,16,10,02,4.60
2015,02,16,10,03,4.70
2015,02,16,10,04,4.90
2015,02,16,10,05,5.00
2015,02,16,10,06,5.10
2015,02,16,10,07,5.20
2015,02,16,10,08,5.30
2015,02,16,10,09,5.40
2015,02,16,10,10,5.50
2015,02,16,10,11,5.60
2015,02,16,10,12,5.80
2015,02,16,10,13,5.90
2015,02,16,10,14,6.00
2015,02,16,10,15,6.10
2015,02,16,10,16,6.20
2015,02,16,10,17,6.30
2015,02,16,10,18,6.40
2015,02,16,10,19,6.50
2015,02,16,10,20,6.50
2015,02,16,10,21,6.70
2015,02,16,10,22,6.80
2015,02,16,10,23,6.90
2015,02,16,10,24,7.00
2015,02,16,10,25,7.10
2015,02,16,10,26,7.20
2015,02,16,10,27,7.30
2015,02,16,10,28,7.40
2015,02,16,10,29,7.50
2015,02,16,10,30,7.70
2015,02,16,10,31,7.80
2015,02,16,10,32,7.90
2015,02,16,10,33,8.00
2015,02,16,10,34,8.00
2015,02,16,10,35,8.10
2015,02,16,10,36,8.00
2015,02,16,10,37,8.00
2015,02,16,10,38,8.00
2015,02,16,10,39,8.10
2015,02,16,10,40,8.20
2015,02,16,10,41,8.20
2015,02,16,10,42,8.30
2015,02,16,10,43,8.30
2015,02,16,10,44,8.30
2015,02,16,10,45,8.40
2015,02,16,10,46,8.40
2015,02,16,10,47,8.30
2015,02,16,10,48,8.20
2015,02,16,10,49,8.30
2015,02,16,10,50,8.40
2015,02,16,10,51,8.50
2015,02,16,10,52,8.60
2015,02,16,10,53,8.60
2015,02,16,10,54,8.70
2015,02,16,10,55,8.70
2015,02,16,10,56,8.70
2015,02,16,10,57,8.70
2015,02,16,10,58,8.80
2015,02,16,10,59,8.90
2015,02,16,11,00,8.90
2015,02,16,11,01,9.00
2015,02,16,11,02,9.10
2015,02,16,11,03,9.20
2015,02,16,11,04,9.30
2015,02,16,11,05,9.40
2015,02,16,11,06,9.50
2015,02,16,11,07,9.60
2015,02,16,11,08,9.70
2015,02,16,11,09,9.70
2015,02,16,11,10,9.80
2015,02,16,11,11,9.90
2015,02,16,11,12,9.90
2015,02,16,11,13,10.00
2015,02,16,11,14,10.10
2015,02,16,11,15,10.10
2015,02,16,11,16,10.20
2015,02,16,11,17,10.20
2015,02,16,11,18,10.30
2015,02,16,11,19,10.30
2015,02,16,11,20,10.40
2015,02,16,11,21,10.40
2015,02,16,11,22,10.50
2015,02,16,11,23,10.60
2015,02,16,11,24,10.60
2015,02,16,11,25,10.70
2015,02,16,11,26,10.70
2015,02,16,11,27,10.80
2015,02,16,11,28,10.80
2015,02,16,11,29,10.80
2015,02,16,11,30,10.80
2015,02,16,11,31,10.90
2015,02,16,11,32,10.90
2015,02,16,11,33,10.90
2015,02,16,11,34,10.90
2015,02,16,11,35,10.90
2015,02,16,11,36,10.90
2015,02,16,11,37,10.80
2015,02,16,11,38,10.80
2015,02,16,11,39,10.80
2015,02,16,11,40,10.80
2015,02,16,11,41,10.80
2015,02,16,11,42,10.80
2015,02,16,11,43,10.80
2015,02,16,11,44,10.70
2015,02,16,11,45,10.70
2015,02,16,11,46,10.70
2015,02,16,11,47,10.70
2015,02,16,11,48,10.70
2015,02,16,11,49,10.70
2015,02,16,11,50,10.70
2015,02,16,11,51,10.70
2015,02,16,11,52,10.80
2015,02,16,11,53,10.80
2015,02,16,11,54,10.80
2015,02,16,11,55,10.70
2015,02,16,11,56,10.70
2015,02,16,11,57,10.70
2015,02,16,11,58,10.70
2015,02,16,11,59,10.80
2015,02,16,12,00,10.80
2015,02,16,12,01,10.80
2015,02,16,12,02,10.80
2015,02,16,12,03,10.90
2015,02,16,12,04,10.90
2015,02,16,12,05,10.90
2015,02,16,12,06,11.00
2015,02,16,12,07,11.00
2015,02,16,12,08,11.00
2015,02,16,12,09,11.00
2015,02,16,12,10,10.90
2015,02,16,12,11,10.90
2015,02,16,12,12,10.80
2015,02,16,12,13,10.80
2015,02,16,12,14,10.80
2015,02,16,12,15,10.70
2015,02,16,12,16,10.70
2015,02,16,12,17,10.70
2015,02,16,12,18,10.70
2015,02,16,12,19,10.80
2015,02,16,12,20,10.80
2015,02,16,12,21,10.70
2015,02,16,12,22,10.80
2015,02,16,12,23,10.80
2015,02,16,12,24,10.80
2015,02,16,12,25,10.80
2015,02,16,12,26,10.80
2015,02,16,12,27,10.80
2015,02,16,12,28,10.90
2015,02,16,12,29,10.90
2015,02,16,12,30,11.00
2015,02,16,12,31,11.00
2015,02,16,12,32,11.10
2015,02,16,12,33,11.10
2015,02,16,12,34,11.20
2015,02,16,12,35,11.20
2015,02,16,12,36,11.20
2015,02,16,12,37,11.20
2015,02,16,12,38,11.30
2015,02,16,12,39,11.30
2015,02,16,12,40,11.30
2015,02,16,12,41,11.40
2015,02,16,12,42,11.50
2015,02,16,12,43,11.50
2015,02,16,12,44,11.60
2015,02,16,12,45,11.70
2015,02,16,12,46,11.70
2015,02,16,12,47,11.80
2015,02,16,12,48,11.80
2015,02,16,12,49,11.80
2015,02,16,12,50,11.80
2015,02,16,12,51,11.80
2015,02,16,12,52,11.90
2015,02,16,12,53,11.90
2015,02,16,12,54,11.90
2015,02,16,12,55,11.90
2015,02,16,12,56,11.90
2015,02,16,12,57,11.90
2015,02,16,12,58,11.90
2015,02,16,12,59,11.90
2015,02,16,13,00,11.90
2015,02,16,13,01,11.90
2015,02,16,13,02,11.90
2015,02,16,13,03,11.90
2015,02,16,13,04,11.90
2015,02,16,13,05,11.90
2015,02,16,13,06,12.00
2015,02,16,13,07,12.00
2015,02,16,13,08,12.10
2015,02,16,13,09,12.10
2015,02,16,13,10,12.10
2015,02,16,13,11,12.10
2015,02,16,13,12,12.20
2015,02,16,13,13,12.20
2015,02,16,13,14,12.30
2015,02,16,13,15,12.30
2015,02,16,13,16,12.30
2015,02,16,13,17,12.30
2015,02,16,13,18,12.40
2015,02,16,13,19,12.40
2015,02,16,13,20,12.40
2015,02,16,13,21,12.50
2015,02,16,13,22,12.50
2015,02,16,13,23,12.60
2015,02,16,13,24,12.60
2015,02,16,13,25,12.60
2015,02,16,13,26,12.70
2015,02,16,13,27,12.70
2015,02,16,13,28,12.70
2015,02,16,13,29,12.70
2015,02,16,13,30,12.70
2015,02,16,13,31,12.70
2015,02,16,13,32,12.70
2015,02,16,13,33,12.60
2015,02,16,13,34,12.60
2015,02,16,13,35,12.60
2015,02,16,13,36,12.60
2015,02,16,13,37,12.70
2015,02,16,13,38,12.70
2015,02,16,13,39,12.70
2015,02,16,13,40,12.70
2015,02,16,13,41,12.70
2015,02,16,13,42,12.70
2015,02,16,13,43,12.80
2015,02,16,13,44,12.80
2015,02,16,13,45,12.90
2015,02,16,13,46,12.90
2015,02,16,13,47,13.00
2015,02,16,13,48,13.10
2015,02,16,13,49,13.10
2015,02,16,13,50,13.20
2015,02,16,13,51,13.20
2015,02,16,13,52,13.20
2015,02,16,13,53,13.30
2015,02,16,13,54,13.30
2015,02,16,13,55,13.40
2015,02,16,13,56,13.40
2015,02,16,13,57,13.40
2015,02,16,13,58,13.50
2015,02,16,13,59,13.50
2015,02,16,14,00,13.60
2015,02,16,14,01,13.60
2015,02,16,14,02,13.60
2015,02,16,14,03,13.50
2015,02,16,14,04,13.40
2015,02,16,14,05,13.30
2015,02,16,14,06,13.30
2015,02,16,14,07,13.20
2015,02,16,14,08,13.20
2015,02,16,14,09,13.10
2015,02,16,14,10,13.00
2015,02,16,14,11,13.00
2015,02,16,14,12,12.90
2015,02,16,14,13,12.80
2015,02,16,14,14,12.80
2015,02,16,14,15,12.80
2015,02,16,14,16,12.80
2015,02,16,14,17,12.80
2015,02,16,14,18,12.80
2015,02,16,14,19,12.80
2015,02,16,14,20,12.80
2015,02,16,14,21,12.80
2015,02,16,14,22,12.80
2015,02,16,14,23,12.80
2015,02,16,14,24,12.80
2015,02,16,14,25,12.80
2015,02,16,14,26,12.70
2015,02,16,14,27,12.70
2015,02,16,14,28,12.70
2015,02,16,14,29,12.70
2015,02,16,14,30,12.70
2015,02,16,14,31,12.70
2015,02,16,14,32,12.70
2015,02,16,14,33,12.80
2015,02,16,14,34,12.80
2015,02,16,14,35,12.80
2015,02,16,14,36,12.70
2015,02,16,14,37,12.80
2015,02,16,14,38,12.80
2015,02,16,14,39,12.80
2015,02,16,14,40,12.80
2015,02,16,14,41,12.90
2015,02,16,14,42,12.90
2015,02,16,14,43,13.00
2015,02,16,14,44,13.00
2015,02,16,14,45,13.10
2015,02,16,14,46,13.10
2015,02,16,14,47,13.20
2015,02,16,14,48,13.30
2015,02,16,14,49,13.30
2015,02,16,14,50,13.30
2015,02,16,14,51,13.30
2015,02,16,14,52,13.30
2015,02,16,14,53,13.20
2015,02,16,14,54,13.20
2015,02,16,14,55,13.10
2015,02,16,14,56,13.00
2015,02,16,14,57,13.00
2015,02,16,14,58,12.90
2015,02,16,14,59,12.90
2015,02,16,15,00,12.90
2015,02,16,15,01,12.90
2015,02,16,15,02,12.90
2015,02,16,15,03,12.90
2015,02,16,15,04,12.90
2015,02,16,15,05,12.90
2015,02,16,15,06,12.90
2015,02,16,15,07,12.90
2015,02,16,15,08,12.80
2015,02,16,15,09,12.80
2015,02,16,15,10,12.80
2015,02,16,15,11,12.80
2015,02,16,15,12,12.70
2015,02,16,15,13,12.70
2015,02,16,15,14,12.70
2015,02,16,15,15,12.70
2015,02,16,15,16,12.60
2015,02,16,15,17,12.60
2015,02,16,15,18,12.60
2015,02,16,15,19,12.60
2015,02,16,15,20,12.60
2015,02,16,15,21,12.60
2015,02,16,15,22,12.60
2015,02,16,15,23,12.60
2015,02,16,15,24,12.60
2015,02,16,15,25,12.60
2015,02,16,15,26,12.60
2015,02,16,15,27,12.60
2015,02,16,15,28,12.60
2015,02,16,15,29,12.60
2015,02,16,15,30,12.60
2015,02,16,15,31,12.60
2015,02,16,15,32,12.60
2015,02,16,15,33,12.60
2015,02,16,15,34,12.50
2015,02,16,15,35,12.50
2015,02,16,15,36,12.40
2015,02,16,15,37,12.40
2015,02,16,15,38,12.40
2015,02,16,15,39,12.40
2015,02,16,15,40,12.40
2015,02,16,15,41,12.40
2015,02,16,15,42,12.40
2015,02,16,15,43,12.40
2015,02,16,15,44,12.40
2015,02,16,15,45,12.30
2015,02,16,15,46,12.30
2015,02,16,15,47,12.40
2015,02,16,15,48,12.40
2015,02,16,15,49,12.40
2015,02,16,15,50,12.40
2015,02,16,15,51,12.40
2015,02,16,15,52,12.40
2015,02,16,15,53,12.50
2015,02,16,15,54,12.40
2015,02,16,15,55,12.40
2015,02,16,15,56,12.40
2015,02,16,15,57,12.40
2015,02,16,15,58,12.30
2015,02,16,15,59,12.30
2015,02,16,16,00,12.30
2015,02,16,16,01,12.30
2015,02,16,16,02,12.20
2015,02,16,16,03,12.20
2015,02,16,16,04,12.10
2015,02,16,16,05,12.00
2015,02,16,16,06,12.00
2015,02,16,16,07,11.90
2015,02,16,16,08,11.90
2015,02,16,16,09,11.90
2015,02,16,16,10,11.90
2015,02,16,16,11,11.90
2015,02,16,16,12,11.90
2015,02,16,16,13,11.90
2015,02,16,16,14,11.90
2015,02,16,16,15,11.90
2015,02,16,16,16,11.90
2015,02,16,16,17,11.90
2015,02,16,16,18,11.90
2015,02,16,16,19,11.90
2015,02,16,16,20,11.90
2015,02,16,16,21,12.00
2015,02,16,16,22,12.00
2015,02,16,16,23,12.00
2015,02,16,16,24,12.00
2015,02,16,16,25,12.00
2015,02,16,16,26,12.00
2015,02,16,16,27,12.10
2015,02,16,16,28,12.00
2015,02,16,16,29,12.10
2015,02,16,16,30,12.00
2015,02,16,16,31,12.00
2015,02,16,16,32,12.00
2015,02,16,16,33,12.00
2015,02,16,16,34,12.00
2015,02,16,16,35,12.00
2015,02,16,16,36,11.90
2015,02,16,16,37,11.90
2015,02,16,16,38,11.90
2015,02,16,16,39,11.80
2015,02,16,16,40,11.80
2015,02,16,16,41,11.80
2015,02,16,16,42,11.70
2015,02,16,16,43,11.70
2015,02,16,16,44,11.70
2015,02,16,16,45,11.70
2015,02,16,16,46,11.70
2015,02,16,16,47,11.70
2015,02,16,16,48,11.70
2015,02,16,16,49,11.70
2015,02,16,16,50,11.70
2015,02,16,16,51,11.70
2015,02,16,16,52,11.60
2015,02,16,16,53,11.60
2015,02,16,16,54,11.60
2015,02,16,16,55,11.60
2015,02,16,16,56,11.60
2015,02,16,16,57,11.60
2015,02,16,16,58,11.50
2015,02,16,16,59,11.50
2015,02,16,17,00,11.40
2015,02,16,17,01,11.40
2015,02,16,17,02,11.30
2015,02,16,17,03,11.30
2015,02,16,17,04,11.20
2015,02,16,17,05,11.20
2015,02,16,17,06,11.10
2015,02,16,17,07,11.10
2015,02,16,17,08,11.10
2015,02,16,17,09,11.00
2015,02,16,17,10,11.00
2015,02,16,17,11,10.90
2015,02,16,17,12,10.90
2015,02,16,17,13,10.90
2015,02,16,17,14,10.90
2015,02,16,17,15,10.90
2015,02,16,17,16,10.80
2015,02,16,17,17,10.80
2015,02,16,17,18,10.80
2015,02,16,17,19,10.80
2015,02,16,17,20,10.80
2015,02,16,17,21,10.70
2015,02,16,17,22,10.70
2015,02,16,17,23,10.60
2015,02,16,17,24,10.50
2015,02,16,17,25,10.50
2015,02,16,17,26,10.40
2015,02,16,17,27,10.30
2015,02,16,17,28,10.30
2015,02,16,17,29,10.20
2015,02,16,17,30,10.20
2015,02,16,17,31,10.10
2015,02,16,17,32,10.10
2015,02,16,17,33,10.00
2015,02,16,17,34,10.00
2015,02,16,17,35,9.90
2015,02,16,17,36,9.80
2015,02,16,17,37,9.80
2015,02,16,17,38,9.70
2015,02,16,17,39,9.60
2015,02,16,17,40,9.50
2015,02,16,17,41,9.40
2015,02,16,17,42,9.30
2015,02,16,17,43,9.20
2015,02,16,17,44,9.10
2015,02,16,17,45,9.00
2015,02,16,17,46,8.90
2015,02,16,17,47,8.80
2015,02,16,17,48,8.80
2015,02,16,17,49,8.70